Dewpoint
-9 -9 -10 -10 -11 -12 -12 -12 -13 -14 -14 -13 -14 -14 -11 -11 -14 -19 -20 -20 -18 -15 -14 -9 -16 5 6 4 2 2 7 11 12 12 10 10 11 9 9 10 10 8 13 13 17
-8 -8 -9 -10 -10 -11 -12 -12 -12 -14 -14 -14 -14 -14 -12 -10 -11 -10 -15 -20 -11 -12 -14 -9 2 5 5 3 1 1 6 8 9 9 9 10 10 10 10 11 11 12 11 14 15
-9 -10 -10 -11 -11 -11 -12 -12 -12 -13 -14 -13 -14 -14 -12 -11 0 3 -5 -15 -10 -10 -13 3 4 5 3 1 -2 2 3 6 4 7 7 9 10 9 9 10 9 14 15 15 16
-10 -11 -11 -12 -12 -13 -13 -13 -13 -13 -14 -14 -14 -14 -14 -11 6 1 -6 -9 -10 -14 -4 1 -2 -2 -2 -4 -6 -3 -0 -1 -3 -2 6 6 6 7 7 6 5 10 13 15 15
-10 -11 -11 -12 -13 -14 -14 -15 -14 -14 -14 -14 -14 -14 -14 -7 -12 2 -7 -7 -12 -14 -3 -2 -1 -0 -3 -7 -7 -6 -6 -3 -2 2 3 6 6 6 7 6 6 11 15 15 15
-10 -11 -11 -12 -12 -14 -15 -15 -16 -16 -15 -14 -15 -14 -12 -3 1 -1 -3 -7 -11 -13 -2 -0 -1 -3 -5 -5 -4 -4 -2 -0 -1 2 3 5 6 6 8 7 11 14 16 16 15
-10 -11 -10 -10 -11 -12 -13 -15 -16 -17 -16 -15 -15 -14 -13 -16 -3 -1 -5 -6 -9 -12 -1 -1 -3 -3 -6 -4 -2 0 1 -0 1 2 2 3 6 3 9 15 17 17 17 16 16
-10 -10 -10 -9 -9 -10 -11 -12 -16 -18 -17 -16 -14 -13 -15 -9 -1 -0 -3 -6 -7 -13 -3 -3 -3 -4 -5 -2 0 1 2 5 1 3 3 2 6 9 11 16 16 16 16 16 15
-9 -9 -9 -9 -8 -10 -11 -10 -6 -8 -13 -15 -10 -10 -11 -2 -1 -0 -1 -4 -2 -2 -2 -4 -5 -3 -1 2 2 1 1 3 4 3 3 3 5 10 14 15 15 16 16 15 13
-8 -8 -9 -9 -9 -11 -11 -5 -1 2 -0 -1 -2 -6 -12 -2 -0 -0 -0 -2 -1 -2 -4 -5 -3 -0 0 2 -2 2 5 3 3 3 3 3 7 11 13 13 14 15 14 12 8
-12 -10 -9 -9 -9 -10 -6 -4 -4 -4 -6 -4 -3 -9 -12 -2 -0 -0 0 -1 -1 -4 -5 -4 -2 -1 -0 0 1 1 1 1 1 -0 4 4 6 9 11 11 10 8 7 6 6
-15 -16 -13 -11 -9 -10 -2 -2 -2 -3 -5 -8 -8 -6 -7 -7 -3 -2 -1 -1 -1 -1 -4 -4 -2 -3 -3 -2 -0 -0 -0 -2 -3 -1 4 4 10 12 13 12 10 8 7 8 10
-14 -15 -18 -18 -15 -11 -3 -3 -5 -5 -4 -7 -10 -12 -8 -9 -4 -3 -2 -3 -2 -1 -2 -2 -4 -4 -3 -4 -3 -4 -5 -8 -7 -6 3 4 8 9 8 11 10 8 7 7 9
-14 -16 -16 -18 -19 -13 -3 -3 -4 -5 -4 -6 -5 -10 -12 -8 -6 -2 -2 -3 -3 -1 -1 -1 -2 -2 -2 -2 -4 -4 -7 -8 -8 -5 -4 0 1 8 8 10 9 8 8 7 9
-14 -14 -15 -16 -19 -9 -3 -3 -2 -4 -9 -10 -7 -10 -11 -7 -8 -5 -3 -3 -2 -3 -2 -1 -1 -1 -1 -1 -5 -3 -6 -9 -8 -3 -2 -3 -2 -2 7 8 10 9 8 7 8
-13 -13 -15 -15 -18 -14 -4 -5 -6 -8 -8 -7 -9 -9 -9 -10 -10 -3 -3 -3 -4 -4 -4 -3 -3 -3 -2 -3 -3 -4 -7 -4 -1 -2 -1 -3 -1 1 10 8 6 8 8 9 8
-12 -12 -15 -15 -15 -7 -5 -6 -6 -4 -9 -6 -9 -10 -10 -9 -9 -6 -2 -2 -1 -2 -1 -2 -2 -3 -3 -2 -3 -7 -5 -2 -2 -1 -2 2 5 5 6 8 7 7 8 8 7
-13 -14 -15 -17 -15 -3 -4 -6 -5 -9 -4 -8 -9 -9 -9 -10 -10 -8 -2 -0 -2 -1 1 2 1 -1 -3 -2 -2 -6 -6 -2 -2 1 0 2 5 7 9 8 9 7 8 9 14
-14 -15 -17 -18 -16 -4 -4 -6 -8 -5 -5 -7 -8 -7 -8 -9 -10 -9 -2 -2 -2 -1 1 2 2 -1 -3 -4 -5 -4 -3 -6 -2 -1 0 2 6 8 8 14 14 11 16 16 15
-14 -14 -11 -15 -16 -5 -3 -4 -4 -5 -8 -8 -6 -7 -7 -8 -9 -8 -6 -6 -3 -2 -3 -1 0 -4 -5 -4 -4 -5 -5 -2 -2 -0 -0 1 10 9 9 14 16 15 15 16 9
-12 -1 -2 -7 -13 -2 -1 -2 -4 -8 -8 -7 -7 -7 -8 -9 -9 -9 -9 -9 -5 -5 -2 -2 -3 -3 -4 -2 -2 -4 -4 -3 -3 -1 1 3 7 7 9 11 16 15 16 11 4
-6 -0 -3 -13 -6 -3 -3 -4 -7 -7 -10 -8 -7 -7 -7 -9 -10 -9 -8 -7 -9 -6 -0 -2 -2 1 -2 -3 -4 -6 -5 -4 -0 -2 3 5 5 9 8 9 12 15 15 14 11
-3 1 -2 -3 -3 -3 -4 -5 -6 -8 -7 -8 -7 -8 -9 -8 -9 -9 -6 -8 -11 -8 -6 -4 -2 -2 -3 -3 -4 -3 -4 -3 -2 -3 3 3 2 11 11 12 13 15 14 14 14
2 2 0 -0 0 -1 1 1 -1 -3 -4 -6 -7 -8 -7 -7 -9 -8 -9 -11 -11 -9 -2 -3 -2 -4 -3 -1 -0 3 3 -2 -2 1 0 1 -1 12 11 11 13 15 14 14 14
3 3 2 2 1 1 1 2 2 1 -2 -4 -3 -5 -4 -5 -7 -7 -9 -7 -7 -3 1 -2 1 -0 -1 -2 3 4 4 3 1 -1 1 0 4 6 10 11 12 13 15 15 14
2 2 0 1 1 -2 -1 2 2 4 1 -0 3 4 1 -5 -6 -7 -7 -5 -4 -1 3 4 -2 4 4 4 4 4 3 4 4 3 1 3 5 8 9 10 10 10 12 14 11
-1 0 2 -0 -0 -1 -0 3 3 4 4 3 4 4 -0 -0 4 -1 -7 -3 -2 1 4 7 2 3 2 6 3 2 3 4 5 5 4 6 5 10 10 10 9 7 9 13 8
Wind_Speed
7 7 7 8 9 9 10 11 12 12 12 12 10 8 7 5 7 10 11 5 13 7 6 6 9 10 5 2 2 1 4 1 5 7 4 11 6 9 6 4 5 8 7 11 26
7 7 8 8 9 10 10 12 12 12 12 12 12 10 8 7 8 8 5 9 9 9 8 9 15 8 3 1 2 3 3 6 5 5 5 13 15 17 5 8 8 8 6 26 28
8 9 9 9 10 10 10 12 12 12 12 13 12 11 9 8 2 1 2 9 10 9 11 14 10 3 3 1 2 3 3 4 12 17 17 14 21 16 9 4 16 20 27 33 30
9 9 10 10 10 10 11 12 12 13 12 12 13 11 10 5 3 2 3 7 8 12 16 13 6 2 2 2 2 3 8 6 11 28 11 9 10 11 20 18 18 25 28 32 34
9 9 10 11 10 11 11 12 13 13 12 12 12 11 9 4 2 0 1 4 7 11 18 11 8 4 1 2 6 4 3 14 19 16 15 16 17 9 21 10 12 24 32 31 30
10 9 10 11 11 11 12 12 13 13 12 12 12 11 8 3 1 1 3 4 5 15 16 11 4 1 4 3 2 8 13 21 9 6 1 9 5 8 3 13 22 27 29 27 27
10 10 11 11 12 11 12 13 14 13 12 12 12 11 10 9 3 2 1 4 4 10 14 8 2 6 5 7 7 9 7 10 8 6 4 11 3 2 11 22 28 27 23 25 28
11 11 11 12 12 12 13 15 15 14 12 11 11 10 7 5 6 6 2 6 8 12 9 3 6 6 3 5 8 5 2 4 2 3 2 2 4 2 23 31 23 26 28 26 22
12 12 12 12 12 12 14 15 15 12 10 9 9 6 7 5 10 8 4 5 11 9 3 3 4 2 1 4 5 5 4 2 8 2 1 4 4 6 26 33 26 28 26 27 25
13 14 13 13 12 12 14 14 7 6 4 7 10 5 8 4 6 10 7 9 6 6 2 2 1 3 3 4 4 3 3 5 6 1 2 3 4 2 11 25 28 28 28 27 28
13 15 14 13 11 12 11 8 6 2 13 8 5 6 8 3 8 11 12 11 6 4 3 1 3 7 9 7 3 3 3 7 11 5 4 3 9 12 13 10 17 21 21 25 26
13 15 15 12 11 9 8 6 8 10 13 16 18 24 24 18 5 8 14 10 6 5 3 5 7 6 6 5 5 5 4 8 9 4 4 2 5 3 6 12 21 23 19 24 21
13 14 14 11 10 6 4 6 4 6 5 13 14 19 26 18 9 9 18 12 4 5 4 5 6 3 5 3 4 4 5 5 6 4 2 3 4 3 1 5 21 26 22 13 22
14 13 14 9 5 7 4 1 2 8 4 7 5 8 17 12 7 23 22 9 2 8 6 5 10 7 2 6 6 5 5 6 5 3 2 3 3 4 5 7 7 20 17 13 15
15 15 12 9 5 3 6 4 4 4 3 3 4 2 12 15 7 11 27 15 8 6 6 8 2 2 4 6 5 10 4 4 1 2 2 2 4 5 1 7 10 14 20 23 16
15 17 14 10 8 6 7 2 1 5 6 6 4 5 6 6 4 5 15 10 7 3 3 8 6 2 5 6 5 10 2 6 5 4 3 4 4 3 4 7 2 11 28 26 26
16 15 16 9 2 7 9 4 5 3 5 6 3 3 2 6 6 4 7 5 6 2 5 5 6 5 6 4 4 5 6 4 4 5 5 2 2 7 6 8 7 19 23 23 19
17 16 16 11 9 10 11 4 4 3 5 6 5 3 4 2 2 3 6 5 5 4 2 3 8 3 2 8 7 5 8 6 5 3 5 3 3 4 7 16 10 14 16 16 15
19 14 14 8 12 15 10 3 8 5 4 7 8 4 6 6 2 4 9 8 8 9 8 5 6 4 3 3 5 2 3 5 7 2 2 3 5 6 5 4 13 21 20 14 6
18 9 7 7 15 17 4 5 4 4 5 4 3 3 4 6 3 3 7 4 5 10 6 4 7 7 4 3 3 6 6 3 3 3 3 4 4 5 5 6 7 12 21 28 21
10 4 3 13 19 11 4 6 4 4 10 5 1 3 3 2 0 1 4 4 5 5 16 5 5 14 3 3 5 1 1 6 5 4 6 3 6 7 10 8 8 12 26 27 27
4 3 14 21 4 1 2 4 5 2 7 5 3 6 4 4 2 2 5 4 9 6 8 8 5 7 11 6 3 4 7 6 5 5 2 4 6 4 9 8 15 18 25 29 30
7 4 15 13 3 1 4 4 2 2 2 2 3 4 3 2 5 4 4 6 5 2 4 6 4 5 10 6 3 3 0 4 5 4 6 6 6 1 6 5 5 16 26 28 28
4 2 3 9 2 2 2 3 3 6 7 7 6 4 3 3 6 4 2 5 18 13 13 8 4 8 12 9 4 4 3 4 5 3 4 6 5 4 7 9 12 18 25 31 34
6 2 2 2 2 3 2 2 3 4 3 3 4 1 3 5 2 5 2 5 9 6 6 4 5 6 2 3 4 5 4 8 5 5 6 4 7 8 16 12 20 21 23 27 24
3 3 4 3 6 4 5 4 5 4 3 3 4 11 5 5 8 7 3 2 7 6 6 4 2 1 3 4 1 3 4 4 2 4 2 0 8 4 20 21 17 20 20 20 25
3 2 2 2 4 2 1 4 4 6 4 4 8 4 5 1 17 22 20 9 7 2 2 2 2 3 2 1 0 4 3 3 1 1 3 3 5 6 9 12 20 21 14 15 17
Wind_Direction
9 9 359 0 359 357 353 349 348 351 349 347 344 336 322 297 276 264 259 238 198 177 159 173 163 164 214 248 185 179 66 283 156 195 243 179 206 232 218 241 197 197 191 175 173
356 352 353 353 349 347 345 340 343 346 347 344 340 337 332 317 296 283 226 190 161 164 167 162 151 170 247 243 205 101 120 230 177 197 203 184 204 182 196 211 217 180 183 162 177
343 345 344 342 340 337 337 332 335 339 342 343 339 334 336 330 300 45 122 171 177 157 152 152 150 165 273 285 223 176 206 221 272 193 199 196 219 200 188 232 220 172 154 165 178
337 338 335 332 333 330 332 326 327 331 333 337 336 329 333 329 157 63 134 160 152 158 164 171 182 179 266 285 277 270 230 251 291 303 200 205 203 215 204 223 240 174 169 173 180
329 331 330 327 328 326 327 322 320 321 324 327 329 326 334 321 265 124 130 180 157 167 168 168 169 177 242 266 303 204 284 315 296 305 221 204 219 182 209 257 169 162 173 178 184
320 322 323 322 322 323 323 319 315 312 315 317 319 318 319 294 134 26 225 205 173 166 173 177 157 225 277 277 277 305 300 295 289 264 198 173 221 149 144 176 156 165 172 177 183
316 315 315 315 316 322 322 318 312 306 306 307 309 310 295 266 231 259 260 194 178 169 176 180 311 324 316 322 324 307 331 325 218 235 221 131 41 271 151 152 139 161 171 178 186
309 307 307 308 313 319 321 318 310 299 295 296 298 306 268 242 236 216 217 182 171 171 167 169 328 302 234 312 346 356 16 345 7 154 243 141 220 173 156 144 151 168 180 182 188
304 302 302 301 308 316 326 322 313 301 289 282 286 287 270 269 229 208 196 175 150 155 164 307 337 243 197 77 1 351 246 264 319 292 112 16 135 215 163 155 161 177 189 196 199
301 299 297 295 306 318 335 330 320 326 309 281 262 289 239 231 252 222 195 170 167 170 197 230 170 71 36 89 217 208 313 311 276 236 343 130 27 224 155 154 169 181 199 205 212
301 297 293 291 302 321 351 351 348 334 319 261 268 258 280 292 253 234 205 187 195 183 134 45 87 211 216 206 175 348 289 275 280 290 300 155 149 206 158 169 176 188 225 216 212
305 299 289 289 296 315 4 71 38 317 296 284 263 255 253 262 305 240 198 179 170 188 130 18 252 203 202 212 222 246 258 275 287 277 174 158 125 220 177 186 191 200 223 206 210
310 303 290 296 285 282 78 56 33 329 277 288 249 239 236 234 226 236 192 192 151 160 177 169 254 71 179 233 237 246 202 237 233 330 52 350 79 182 231 217 207 214 234 228 230
316 310 304 310 260 240 189 160 337 322 36 275 251 250 204 198 235 229 203 183 193 202 181 228 255 256 307 271 148 289 210 231 266 60 271 53 274 268 211 219 229 226 236 220 210
315 307 307 312 259 221 200 225 265 325 348 242 216 218 182 175 155 209 208 197 175 189 117 242 251 164 234 227 142 236 269 244 278 104 65 348 84 268 3 257 218 236 236 227 225
308 304 296 296 275 224 203 141 273 45 256 325 173 167 124 204 168 96 173 199 214 177 244 240 262 242 221 278 178 264 173 41 53 84 32 277 136 278 213 238 248 221 233 239 245
304 298 284 274 248 164 182 173 52 158 324 331 341 356 223 180 181 137 149 176 166 124 274 318 258 227 202 293 3 89 47 354 357 14 214 216 37 238 261 256 224 198 219 233 239
308 293 272 259 215 168 164 61 175 244 265 303 327 291 181 145 242 114 121 192 260 119 96 214 318 185 177 172 203 198 159 155 198 192 258 287 245 255 258 286 298 189 177 193 202
316 298 275 245 200 177 169 113 204 208 301 337 324 51 357 350 235 141 177 203 202 167 183 180 269 283 192 142 132 208 198 190 106 29 64 276 293 320 338 22 89 122 139 139 143
325 312 280 197 180 173 92 225 229 232 325 5 1 26 17 324 63 144 176 218 225 186 154 233 297 232 264 181 215 158 160 90 8 148 229 297 270 234 236 204 149 130 133 140 120
334 340 341 155 163 162 169 227 259 267 32 2 310 304 271 272 99 333 215 281 177 285 186 154 142 259 101 190 217 12 203 53 121 134 163 175 261 214 209 198 174 168 162 149 149
7 47 140 145 95 76 177 204 337 320 333 280 222 223 236 294 253 244 238 214 37 312 176 193 162 240 238 282 252 176 212 141 133 240 138 156 259 221 208 178 194 175 164 170 174
1 40 168 178 133 251 282 292 279 290 248 275 284 234 78 344 314 224 236 265 325 52 181 179 229 253 311 358 357 199 85 84 111 97 188 138 260 73 108 108 222 153 161 169 166
10 51 133 218 13 105 19 274 281 287 257 226 246 262 306 247 222 266 272 290 331 333 346 143 154 179 223 208 173 150 82 131 126 103 186 219 243 195 173 173 181 169 175 179 184
20 47 20 310 340 341 267 277 269 318 278 285 319 316 327 276 239 229 224 324 320 353 24 129 195 178 275 180 188 175 129 153 180 186 149 270 211 198 193 178 178 174 186 180 173
45 23 357 311 314 327 359 30 6 340 278 323 345 309 274 210 229 277 152 134 248 329 359 354 259 323 89 344 222 139 112 166 228 169 232 314 262 176 152 168 174 178 187 169 176
60 36 321 321 343 49 320 323 357 335 287 296 293 277 278 11 306 276 261 229 217 286 276 18 116 72 202 309 71 11 138 126 284 293 208 220 228 133 157 165 181 189 197 177 176
Height
1519 1518 1517 1515 1515 1513 1511 1510 1509 1506 1504 1503 1503 1502 1501 1499 1498 1497 1496 1497 1497 1499 1499 1500 1500 1502 1503 1503 1504 1503 1514 1522 1519 1516 1506 1503 1506 1503 1504 1505 1507 1506 1507 1507 1511
1518 1518 1516 1515 1513 1512 1510 1510 1508 1506 1504 1503 1501 1501 1499 1498 1496 1494 1495 1495 1496 1498 1499 1500 1501 1503 1504 1503 1504 1504 1517 1508 1503 1502 1501 1501 1503 1500 1503 1503 1506 1504 1504 1508 1508
1518 1516 1514 1513 1512 1511 1509 1508 1506 1505 1503 1502 1500 1499 1498 1496 1496 1494 1493 1494 1496 1498 1500 1501 1502 1504 1504 1503 1503 1504 1510 1500 1492 1497 1497 1500 1502 1500 1498 1502 1497 1498 1501 1505 1509
1518 1516 1515 1514 1512 1510 1508 1507 1505 1503 1502 1500 1499 1498 1497 1496 1500 1494 1494 1495 1495 1498 1500 1502 1503 1504 1504 1504 1502 1505 1499 1498 1491 1486 1491 1494 1495 1495 1496 1491 1493 1497 1499 1502 1505
1518 1515 1514 1513 1511 1509 1507 1505 1503 1502 1501 1499 1498 1497 1496 1496 1495 1494 1494 1495 1495 1498 1500 1502 1503 1504 1505 1503 1502 1501 1498 1494 1492 1486 1484 1488 1486 1492 1493 1493 1492 1495 1501 1505 1510
1517 1515 1513 1511 1509 1507 1505 1503 1502 1500 1499 1497 1496 1496 1496 1497 1494 1495 1494 1495 1495 1498 1500 1502 1504 1504 1504 1503 1503 1498 1494 1489 1487 1485 1483 1485 1485 1486 1491 1491 1494 1498 1504 1508 1510
1516 1514 1512 1510 1508 1505 1503 1501 1500 1498 1497 1495 1495 1495 1495 1494 1493 1494 1494 1495 1496 1498 1500 1502 1504 1504 1502 1501 1499 1496 1495 1486 1485 1485 1482 1481 1490 1489 1490 1496 1495 1499 1504 1504 1502
1514 1513 1511 1509 1506 1504 1502 1499 1497 1496 1495 1494 1493 1493 1492 1490 1491 1493 1494 1495 1496 1498 1500 1502 1503 1502 1501 1500 1500 1501 1500 1507 1487 1486 1483 1483 1501 1491 1490 1490 1496 1496 1500 1501 1501
1513 1511 1510 1508 1506 1503 1501 1497 1494 1493 1492 1492 1493 1493 1490 1488 1489 1492 1494 1495 1497 1498 1500 1501 1501 1502 1502 1507 1516 1511 1517 1507 1498 1485 1485 1488 1498 1492 1490 1486 1491 1495 1500 1498 1496
1511 1510 1509 1507 1504 1502 1500 1496 1493 1492 1491 1490 1491 1494 1488 1487 1487 1489 1492 1494 1497 1498 1499 1500 1500 1504 1507 1515 1532 1516 1511 1505 1506 1490 1486 1489 1498 1494 1495 1490 1490 1495 1496 1496 1497
1509 1508 1507 1506 1504 1502 1500 1496 1496 1493 1490 1489 1489 1486 1484 1486 1486 1487 1490 1493 1495 1497 1500 1500 1507 1514 1506 1505 1505 1505 1508 1511 1496 1487 1487 1489 1496 1493 1496 1496 1495 1498 1495 1496 1496
1507 1505 1505 1504 1502 1502 1501 1499 1503 1504 1493 1484 1482 1482 1482 1485 1487 1486 1489 1492 1494 1499 1498 1505 1510 1498 1499 1502 1504 1506 1511 1511 1495 1485 1487 1489 1501 1498 1495 1491 1490 1497 1492 1493 1495
1505 1503 1501 1501 1502 1503 1502 1501 1502 1501 1497 1478 1475 1474 1477 1482 1483 1483 1486 1489 1491 1497 1499 1508 1496 1491 1496 1498 1504 1503 1507 1504 1501 1489 1488 1489 1505 1502 1497 1494 1492 1493 1493 1495 1495
1502 1499 1499 1500 1503 1500 1501 1502 1502 1501 1508 1482 1473 1468 1471 1478 1479 1480 1483 1486 1489 1495 1497 1501 1490 1491 1495 1497 1498 1508 1488 1492 1493 1499 1515 1492 1528 1504 1498 1497 1494 1492 1490 1490 1493
1500 1499 1499 1498 1497 1499 1501 1501 1502 1501 1525 1471 1469 1467 1468 1473 1473 1474 1478 1484 1489 1491 1495 1499 1489 1491 1495 1492 1490 1496 1483 1486 1486 1499 1503 1504 1523 1509 1498 1496 1489 1490 1487 1486 1490
1500 1498 1496 1496 1496 1498 1499 1501 1502 1515 1521 1475 1466 1467 1470 1470 1470 1473 1478 1483 1484 1488 1489 1490 1484 1485 1485 1481 1485 1482 1484 1495 1503 1513 1530 1509 1514 1513 1507 1493 1485 1488 1486 1487 1489
1498 1496 1493 1494 1495 1496 1499 1502 1518 1526 1483 1480 1474 1469 1469 1470 1471 1473 1479 1485 1493 1504 1505 1491 1484 1478 1479 1485 1481 1487 1504 1532 1530 1540 1536 1509 1513 1506 1491 1483 1480 1481 1484 1488 1490
1493 1490 1489 1492 1493 1496 1498 1504 1520 1498 1495 1477 1474 1470 1473 1469 1471 1474 1482 1490 1485 1489 1505 1505 1507 1476 1471 1479 1486 1488 1498 1529 1540 1546 1532 1512 1515 1500 1483 1477 1478 1483 1487 1492 1492
1487 1485 1485 1488 1490 1494 1498 1516 1509 1499 1487 1485 1478 1478 1481 1474 1472 1473 1481 1484 1478 1481 1500 1506 1499 1471 1468 1470 1474 1486 1498 1490 1522 1526 1530 1525 1504 1489 1482 1480 1479 1483 1489 1497 1504
1485 1483 1483 1484 1488 1493 1499 1506 1498 1490 1487 1486 1490 1483 1487 1482 1479 1479 1483 1469 1473 1470 1474 1484 1500 1474 1466 1466 1467 1475 1477 1502 1517 1527 1529 1528 1513 1510 1490 1485 1479 1480 1486 1492 1488
1484 1482 1482 1484 1490 1494 1504 1503 1493 1488 1488 1489 1489 1488 1484 1482 1480 1481 1480 1468 1466 1468 1469 1478 1489 1474 1468 1473 1476 1480 1485 1497 1504 1515 1530 1537 1523 1485 1482 1480 1480 1479 1481 1484 1485
1484 1485 1486 1488 1493 1496 1498 1493 1490 1488 1488 1488 1486 1485 1485 1481 1480 1480 1479 1468 1465 1467 1472 1468 1486 1494 1484 1467 1463 1466 1474 1484 1510 1509 1518 1518 1510 1476 1471 1475 1475 1479 1483 1483 1484
1487 1488 1490 1490 1498 1498 1493 1490 1489 1487 1487 1487 1485 1481 1480 1484 1489 1480 1474 1463 1465 1464 1466 1468 1485 1497 1489 1479 1466 1468 1469 1479 1489 1499 1514 1519 1508 1478 1474 1477 1478 1478 1480 1484 1490
1491 1492 1492 1493 1493 1493 1493 1491 1490 1485 1483 1483 1482 1480 1481 1481 1481 1479 1475 1464 1459 1457 1455 1459 1479 1481 1488 1485 1470 1471 1469 1471 1482 1501 1503 1502 1483 1482 1479 1479 1481 1480 1478 1481 1484
1494 1497 1498 1498 1495 1495 1494 1491 1489 1488 1483 1481 1481 1481 1485 1486 1477 1478 1472 1469 1460 1456 1457 1462 1475 1472 1465 1462 1462 1463 1464 1472 1477 1479 1485 1476 1481 1471 1469 1473 1474 1474 1478 1484 1489
1497 1498 1497 1496 1496 1495 1495 1495 1493 1491 1488 1485 1485 1481 1479 1482 1479 1475 1470 1471 1471 1460 1461 1462 1471 1462 1467 1464 1461 1462 1459 1459 1461 1464 1467 1470 1475 1460 1466 1472 1473 1474 1477 1485 1488
1498 1499 1500 1498 1496 1496 1498 1495 1492 1491 1485 1483 1482 1480 1474 1473 1472 1466 1464 1463 1463 1465 1465 1467 1471 1476 1478 1471 1466 1480 1459 1458 1459 1453 1458 1467 1458 1462 1467 1467 1471 1474 1478 1481 1488